Location: Haliburton Scout Reserve
(45.0900°N, 78.3200°W)
Time: 01:48:06
(UTC-04:00)

ESTCUBE 1 - Pass Details

Date: 17 May 2022
Orbit: 644 x 659 km, 97.9° (Epoch: 27 June)

Event Time Altitude Azimuth Distance (km) Brightness Sun altitude
Exits shadow 23:10:39 47° 141° (SE) 873 ? -19.9°
Maximum altitude 23:11:51 70° 74° (ENE) 699 ? -20.0°
Drops below altitude 10° 23:16:21 10° 351° (N) 2,073 ? -20.4°
Sets 23:18:34 0° 350° (N) 2,986 ? -20.6°
